Weather History for Brookings, OR

Change the Weather History Date:

Saturday, January 19, 2013

  Actual Average Record
Temperature  
Mean Temperature 46 °F -  
Max Temperature 57 °F 56 °F 71 °F (1976)
Min Temperature 34 °F 42 °F 30 °F (1935)
Degree Days  
Heating Degree Days 20    
Moisture  
Dew Point 40 °F    
Average Humidity 93    
Maximum Humidity 100    
Minimum Humidity 69    
Precipitation  
Precipitation 0.00 in - - ()
Sea Level Pressure  
Sea Level Pressure 30.24 in    
Wind  
Wind Speed 1 mph (SSE)    
Max Wind Speed 4 mph    
Max Gust Speed -    
Visibility 8 miles    
Events      
Averages and records for this station are not official NWS values.
T = Trace of Precipitation, MM = Missing Value Source: NWS Daily Summary

Daily Weather History Graph

Daily Weather History Graph

Search for Another Location

Airport:

Trip Planner

Search our weather history database for the weather conditions in past years. The results will help you decide how hot, cold, wet, or windy it might be!

Date:

Astronomy

Jan. 19, 2013 Rise Set
Actual Time 7:40 AM PST 5:15 PM PST
Civil Twilight 7:09 AM PST 5:46 PM PST
Nautical Twilight 6:35 AM PST 6:20 PM PST
Astronomical Twilight 6:02 AM PST 6:54 PM PST
Moon 11:46 AM PST (1/19) 1:19 AM PST (1/19)
Length of Visible Light 10h 36m
Length of Day
9h 35m
First Quarter, 58% of the Moon is Illuminated
Jan 19
First Quarter
Jan 26
Full
Feb 3
Last Quarter
Feb 9
New
Feb 17
First Quarter

Hourly Weather History & Observations

Time (PST) Temp. Windchill Dew Point Humidity Pressure Visibility Wind Dir Wind Speed Gust Speed Precip Events Conditions
12:56 AM 36.9 °F - 36.9 °F 100% 30.20 in 10.0 mi Calm Calm - N/A   Clear
1:56 AM 36.0 °F - 36.0 °F 100% 30.21 in 10.0 mi Calm Calm - N/A   Clear
2:56 AM 36.0 °F - 36.0 °F 100% 30.22 in 10.0 mi Calm Calm - N/A   Clear
3:56 AM 34.9 °F - 34.9 °F 100% 30.23 in 10.0 mi Calm Calm - N/A   Clear
4:56 AM 34.9 °F - 34.9 °F 100% 30.23 in 10.0 mi Calm Calm - N/A   Clear
5:56 AM 34.9 °F - 34.9 °F 100% 30.25 in 10.0 mi Calm Calm - N/A   Clear
6:56 AM 34.9 °F - 34.9 °F 100% 30.25 in 10.0 mi Calm Calm - N/A   Clear
7:56 AM 34.0 °F - 34.0 °F 100% 30.26 in 10.0 mi Calm Calm - N/A   Clear
8:56 AM 36.9 °F - 36.9 °F 100% 30.27 in 10.0 mi Calm Calm - N/A   Clear
9:56 AM 43.9 °F - 41.0 °F 90% 30.30 in 7.0 mi Calm Calm - N/A   Unknown
10:56 AM 48.9 °F - 43.9 °F 83% 30.29 in 10.0 mi Variable 3.5 mph - N/A   Clear
11:56 AM 50.9 °F - 46.9 °F 86% 30.27 in 4.0 mi Calm Calm - N/A   Clear
12:56 PM 54.0 °F - 46.9 °F 77% 30.25 in 4.0 mi Calm Calm - N/A   Haze
1:56 PM 56.8 °F - 47.8 °F 72% 30.23 in 5.0 mi SW 3.5 mph - N/A   Haze
2:56 PM 57.9 °F - 47.8 °F 69% 30.23 in 5.0 mi South 3.5 mph - N/A   Haze
3:56 PM 54.9 °F - 45.9 °F 72% 30.23 in 5.0 mi Calm Calm - N/A   Haze
4:56 PM 50.0 °F - 43.9 °F 79% 30.22 in 5.0 mi South 3.5 mph - N/A   Haze
5:56 PM 45.0 °F - 45.0 °F 100% 30.23 in 5.0 mi Calm Calm - N/A   Clear
6:56 PM 43.0 °F - 43.0 °F 100% 30.24 in 4.0 mi Calm Calm - N/A   Clear
7:56 PM 41.0 °F - 41.0 °F 100% 30.24 in 10.0 mi Calm Calm - N/A   Clear
8:56 PM 39.9 °F 37.8 °F 39.9 °F 100% 30.25 in 10.0 mi NE 3.5 mph - N/A   Clear
10:56 PM 37.9 °F - 37.9 °F 100% 30.27 in 10.0 mi Calm Calm - N/A   Clear
11:56 PM 37.9 °F 35.5 °F 37.9 °F 100% 30.26 in 10.0 mi NNE 3.5 mph - N/A   Clear